Location: Thunder Bay
(48.4000°N, 89.2330°W)
Time: 22:02:30
(UTC-04:00)

ISS - Pass Details

Date: 30 June 2021
Orbit: 419 x 421 km, 51.6° (Epoch: 02 August)

Event Time Altitude Azimuth Distance (km) Brightness Sun altitude
Exits shadow 05:16:45 - 227° (SW) 1,647 -1.4 -6.1°
Reaches altitude 10° 05:17:08 10° 226° (SW) 1,497 -1.7 -6.1°
Maximum altitude 05:20:24 50° 150° (SSE) 542 -3.3 -5.7°
Drops below altitude 10° 05:23:41 10° 74° (ENE) 1,503 0.2 -5.3°
Sets 05:25:49 0° 69° (ENE) 2,370 1.5 -5.0°
